Change the Weather History Date:

Thursday, February 14, 2013

  Actual Average Record
Temperature  
Mean Temperature 44 °F -  
Max Temperature 46 °F - - ()
Min Temperature 41 °F - - ()
Degree Days  
Heating Degree Days 22    
Moisture  
Dew Point 41 °F    
Average Humidity 90    
Maximum Humidity 93    
Minimum Humidity 82    
Precipitation  
Precipitation 0.12 in - - ()
Sea Level Pressure  
Sea Level Pressure 30.57 in    
Wind  
Wind Speed 1 mph ()    
Max Wind Speed 4 mph    
Max Gust Speed -    
T = Trace of Precipitation, MM = Missing Value Source: Averaged Metar Reports

Daily Weather History Graph

Daily Weather History Graph

Search for Another Location

Airport or City:

Trip Planner

Search our weather history database for the weather conditions in past years. The results will help you decide how hot, cold, wet, or windy it might be!

Date:

Astronomy

Feb. 14, 2013 Rise Set
Actual Time 7:20 AM PST 5:30 PM PST
Civil Twilight 6:47 AM PST 6:03 PM PST
Nautical Twilight 6:10 AM PST 6:40 PM PST
Astronomical Twilight 5:34 AM PST 7:17 PM PST
Moon 8:56 AM PST (2/14) 11:11 PM PST (2/14)
Length of Visible Light 11h 15m
Length of Day
10h 10m
Waxing Crescent, 22% of the Moon is Illuminated
Feb 14
Waxing Crescent
Feb 17
First Quarter
Feb 25
Full
Mar 4
Last Quarter
Mar 11
New

Hourly Weather History & Observations

Time (PST) Temp. Windchill Dew Point Humidity Pressure Visibility Wind Dir Wind Speed Gust Speed Precip Events Conditions
12:00 AM 43.9 °F - 39.6 °F 85% 30.51 in - ESE 1.2 mph - N/A   Unknown
1:00 AM 43.7 °F - 39.4 °F 85% 30.50 in - ESE 1.2 mph - N/A   Unknown
2:00 AM 43.7 °F - 39.6 °F 85% 30.50 in - East 1.2 mph - N/A   Unknown
3:00 AM 43.9 °F - 39.7 °F 85% 30.51 in - East 1.2 mph - N/A   Unknown
4:00 AM 44 °F - 40 °F 82% 30.53 in - Calm Calm - -  
4:00 AM 43.7 °F - 40.3 °F 88% 30.53 in - Calm Calm - 0.01 in   Unknown
5:00 AM 42.8 °F - 39.4 °F 88% 30.54 in - Calm Calm - 0.07 in   Unknown
6:00 AM 42.6 °F - 39.6 °F 89% 30.54 in - Calm Calm - 0.03 in   Unknown
7:00 AM 42.3 °F - 39.7 °F 91% 30.55 in - NE 1.2 mph - 0.01 in   Unknown
8:00 AM 42.4 °F - 40.3 °F 92% 30.56 in - NE 1.2 mph - 0.01 in   Unknown
9:00 AM 42.6 °F - 40.5 °F 92% 30.57 in - ENE 2.3 mph - N/A   Unknown
10:00 AM 43 °F - 41 °F 90% 30.57 in - ENE 3.5 mph - -  
10:00 AM 43.2 °F 41.5 °F 41.0 °F 92% 30.57 in - ENE 3.5 mph - 0.02 in   Unknown
11:00 AM 43.5 °F 41.9 °F 41.4 °F 92% 30.58 in - NE 3.5 mph - 0.01 in   Unknown
12:00 PM 44.4 °F - 42.3 °F 92% 30.58 in - NE 2.3 mph - 0.02 in   Unknown
1:00 PM 44.8 °F - 42.4 °F 91% 30.58 in - ENE 2.3 mph - 0.01 in   Unknown
2:00 PM 45.5 °F - 43.0 °F 91% 30.59 in - North 2.3 mph - N/A   Unknown
3:00 PM 45.5 °F - 42.8 °F 90% 30.59 in - NNE 2.3 mph - N/A   Unknown
4:00 PM 45 °F - 43 °F 88% 30.59 in - NNE 2.3 mph - -  
4:00 PM 45.3 °F - 42.6 °F 90% 30.59 in - NNE 2.3 mph - N/A   Unknown
5:00 PM 45.0 °F - 42.4 °F 91% 30.59 in - NNE 2.3 mph - N/A   Unknown
6:00 PM 44.6 °F - 42.3 °F 91% 30.59 in - NNE 1.2 mph - N/A   Unknown
7:00 PM 44.6 °F - 42.3 °F 91% 30.60 in - NE 2.3 mph - N/A   Unknown
8:00 PM 44.6 °F - 42.4 °F 92% 30.60 in - ENE 2.3 mph - N/A   Unknown
9:00 PM 44.6 °F - 42.4 °F 92% 30.60 in - ENE 2.3 mph - N/A   Unknown
10:00 PM 45 °F - 43 °F 88% 30.60 in - NE 1.2 mph - -  
10:00 PM 44.6 °F - 42.6 °F 93% 30.60 in - NE 1.2 mph - N/A   Unknown
11:00 PM 44.4 °F - 42.4 °F 93% 30.61 in - NNE 2.3 mph - 0.01 in   Unknown